GW6311 Weather Reports


Display with metric or nautical units.
time (UTC)temp
F
wind
direction
speed
MPH
gust
MPH
rain 1hr
in
rain 24hr
in
rain mn
in
humidity
%
barometer
mb
20260510083009 69 238 0.0 0.0 0.00 0.00 0.00 89 1012.8
20260510082507 69 238 0.0 0.0 0.00 0.00 0.00 88 1013.1
20260510082006 69 238 0.0 0.0 0.00 0.00 0.00 88 1013.2
20260510081502 69 238 0.0 0.0 0.00 0.00 0.00 88 1013.2
20260510080958 69 238 0.0 0.0 0.00 0.00 0.00 88 1013.1
20260510080456 69 238 0.0 0.0 0.00 0.00 0.00 89 1013.1
20260510075954 69 238 0.0 0.0 0.00 0.00 0.00 89 1013.0
20260510075451 69 238 0.0 0.0 0.00 0.00 0.00 89 1013.1
20260510074948 70 238 0.0 0.0 0.00 0.00 0.00 88 1013.2
20260510074445 70 238 0.0 0.0 0.00 0.00 0.00 88 1013.2
20260510073941 70 238 0.0 0.0 0.00 0.00 0.00 88 1013.2
20260510073437 70 238 0.0 0.0 0.00 0.00 0.00 87 1013.0
20260510072934 70 238 0.0 0.0 0.00 0.00 0.00 87 1013.3
20260510072431 70 238 0.0 0.0 0.00 0.00 0.00 87 1013.3
20260510071926 71 238 0.0 0.0 0.00 0.00 0.00 87 1013.2
20260510071423 71 238 0.0 0.0 0.00 0.00 0.00 87 1013.1
20260510070921 71 238 0.0 0.0 0.00 0.00 0.00 87 1013.0
20260510070418 71 239 0.0 0.0 0.00 0.00 0.00 87 1013.2
20260510065913 71 239 0.0 0.0 0.00 0.00 0.00 88 1013.1
20260510065410 71 238 0.0 0.0 0.00 0.00 0.00 88 1013.2
20260510064906 70 237 0.0 0.0 0.00 0.00 0.00 89 1013.4
20260510064404 70 245 0.0 0.0 0.00 0.00 0.00 89 1013.3
20260510063900 70 245 0.0 0.0 0.00 0.00 0.00 89 1013.3
20260510063357 71 245 0.0 0.0 0.00 0.00 0.00 89 1013.3
20260510062854 70 245 0.0 0.0 0.00 0.00 0.00 89 1013.3
20260510062349 71 245 0.0 0.0 0.00 0.00 0.00 89 1013.2
20260510061845 70 245 0.0 0.0 0.00 0.00 0.00 89 1013.2
20260510061342 71 245 0.0 0.0 0.00 0.00 0.00 89 1013.2
20260510060837 71 245 0.0 0.0 0.00 0.00 0.00 89 1013.3
20260510060335 71 245 0.0 0.0 0.00 0.00 0.00 89 1013.3
20260510055832 71 245 0.0 0.0 0.00 0.00 0.00 89 1013.5
20260510055331 71 245 0.0 0.0 0.00 0.00 0.00 89 1013.3
20260510054830 71 244 0.0 0.0 0.00 0.00 0.00 88 1013.2
20260510054326 71 244 0.0 0.0 0.00 0.00 0.00 88 1013.4
20260510053821 72 244 0.0 0.0 0.00 0.00 0.00 87 1013.2
20260510053317 72 244 0.0 0.0 0.00 0.00 0.00 86 1013.3
20260510052814 72 244 0.0 0.0 0.00 0.00 0.00 86 1013.2
20260510052309 72 244 0.0 0.0 0.00 0.00 0.00 86 1013.1
20260510051805 72 244 0.0 0.0 0.00 0.00 0.00 86 1013.2
20260510051302 71 244 0.0 0.0 0.00 0.00 0.00 87 1013.0
20260510050800 71 245 0.0 0.0 0.00 0.00 0.00 89 1013.0
20260510050256 71 245 0.0 0.0 0.00 0.00 0.00 88 1013.1
20260510045753 72 244 0.0 0.0 0.00 0.00 0.00 87 1013.1
20260510045250 73 244 0.0 0.0 0.00 0.00 0.00 84 1012.9
20260510044747 73 245 0.0 0.0 0.00 0.00 0.00 84 1012.9
20260510044244 73 245 0.0 0.0 0.00 0.00 0.00 83 1012.7
20260510043739 74 250 0.0 0.0 0.00 0.00 0.00 83 1012.9
20260510043237 74 250 0.0 0.0 0.00 0.00 0.00 83 1012.9
20260510042734 74 243 0.0 0.0 0.00 0.00 0.00 83 1012.7
20260510042229 73 243 0.0 0.0 0.00 0.00 0.00 83 1012.8
20260510041726 73 243 0.0 0.0 0.00 0.00 0.00 84 1012.7
20260510041224 73 243 0.0 0.0 0.00 0.00 0.00 85 1012.8
20260510040720 73 243 0.0 0.0 0.00 0.00 0.00 86 1012.7
20260510040217 73 243 0.0 0.0 0.00 0.00 0.00 87 1012.7
20260510035713 73 243 0.0 0.0 0.00 0.00 0.00 86 1012.6
20260510035209 74 243 0.0 0.0 0.00 0.00 0.00 85 1012.5
20260510034705 74 243 0.0 0.0 0.00 0.00 0.00 84 1012.7
20260510034202 74 243 0.0 0.0 0.00 0.00 0.00 84 1012.5
20260510033658 74 242 0.0 0.0 0.00 0.00 0.00 84 1012.6
20260510033157 74 242 0.0 0.0 0.00 0.00 0.00 84 1012.7
20260510032652 74 242 0.0 0.0 0.00 0.00 0.00 84 1012.5
20260510032148 75 242 0.0 0.0 0.00 0.00 0.00 82 1012.4
20260510031643 75 242 0.0 0.0 0.00 0.00 0.00 82 1012.4
20260510031141 75 242 0.0 0.0 0.00 0.00 0.00 81 1012.5
20260510030640 75 242 0.0 0.0 0.00 0.00 0.00 80 1012.4
20260510030138 76 242 0.0 0.0 0.00 0.00 0.00 79 1012.3
20260510025635 76 242 0.0 0.0 0.00 0.00 0.00 78 1012.3
20260510025132 77 242 0.0 0.0 0.00 0.00 0.00 76 1012.3
20260510024629 77 241 0.0 0.0 0.00 0.00 0.00 74 1012.1
20260510024126 77 241 0.0 0.0 0.00 0.00 0.00 73 1012.1
20260510023621 78 241 0.0 0.0 0.00 0.00 0.00 73 1012.1
20260510023119 78 241 0.0 0.0 0.00 0.00 0.00 73 1012.1
20260510022619 78 240 0.0 0.0 0.00 0.00 0.00 73 1011.9
20260510022114 78 238 0.0 0.0 0.00 0.00 0.00 72 1011.7
20260510021610 78 237 2.0 2.0 0.00 0.00 0.00 72 1011.6
20260510021108 78 242 0.0 0.0 0.00 0.00 0.00 73 1011.6
20260510020607 78 248 0.0 2.0 0.00 0.00 0.00 73 1011.7
20260510015559 79 242 0.0 0.0 0.00 0.00 0.00 73 1011.4
20260510015056 79 242 0.0 0.0 0.00 0.00 0.00 72 1011.2
20260510014551 79 241 0.0 0.0 0.00 0.00 0.00 71 1011.2
20260510014049 80 239 0.0 0.0 0.00 0.00 0.00 70 1011.1
20260510013544 80 238 0.0 2.0 0.00 0.00 0.00 70 1011.0
20260510013040 80 240 0.0 0.0 0.00 0.00 0.00 69 1011.0
20260510012539 81 236 0.0 0.0 0.00 0.00 0.00 68 1010.8
20260510012036 81 245 0.0 0.0 0.00 0.00 0.00 67 1010.9
20260510011536 81 239 0.0 0.0 0.00 0.00 0.00 67 1010.8
20260510011032 81 237 0.0 0.0 0.00 0.00 0.00 67 1010.8
20260510010529 81 242 0.0 0.0 0.00 0.00 0.00 67 1010.7
20260510010026 82 242 0.0 0.0 0.00 0.00 0.00 67 1010.6
20260510005521 82 242 0.0 0.0 0.00 0.00 0.00 67 1010.3
20260510005019 82 242 0.0 0.0 0.00 0.00 0.00 67 1010.5
20260510004516 82 243 0.0 0.0 0.00 0.00 0.00 66 1010.4
20260510004015 82 241 0.0 0.0 0.00 0.00 0.00 66 1010.4
20260510003511 82 240 0.0 0.0 0.00 0.00 0.00 67 1010.2
20260510003006 82 249 0.0 0.0 0.00 0.00 0.00 69 1010.3
20260510002502 82 249 0.0 0.0 0.00 0.00 0.00 67 1010.0
20260510001959 82 249 0.0 0.0 0.00 0.00 0.00 67 1010.1
20260510001456 82 240 0.0 2.0 0.00 0.00 0.00 68 1010.1
20260510000954 82 250 0.0 0.0 0.00 0.00 0.00 68 1010.2
20260510000449 83 246 2.0 4.0 0.00 0.00 0.00 67 1010.2
20260509235946 83 242 2.0 2.0 0.00 0.00 0.00 65 1010.2
20260509235443 84 237 0.0 2.0 0.00 0.00 0.00 64 1010.4
20260509234940 85 241 0.0 4.0 0.00 0.00 0.00 59 1010.4
20260509234436 85 240 2.0 4.0 0.00 0.00 0.00 56 1010.0
20260509233934 86 183 3.0 6.0 0.00 0.00 0.00 55 1010.0
20260509233432 87 139 3.0 6.0 0.00 0.00 0.00 53 1010.0
20260509232927 88 197 2.0 4.0 0.00 0.00 0.00 55 1010.2
20260509232426 88 221 4.0 4.0 0.00 0.00 0.00 54 1010.1
20260509231921 89 244 0.0 2.0 0.00 0.00 0.00 54 1009.9
20260509231418 89 248 0.0 0.0 0.00 0.00 0.00 54 1009.9
20260509230916 90 251 0.0 2.0 0.00 0.00 0.00 50 1010.2
20260509230413 91 252 0.0 2.0 0.00 0.00 0.00 49 1010.0
20260509225908 90 253 1.0 2.0 0.00 0.00 0.00 50 1010.1
20260509225405 90 260 2.0 2.0 0.00 0.00 0.00 49 1010.0
20260509224901 91 244 0.0 6.0 0.00 0.00 0.00 50 1010.0
20260509224351 91 250 1.0 4.0 0.00 0.00 0.00 49 1010.1
20260509223849 91 248 3.0 6.0 0.00 0.00 0.00 49 1010.1
20260509223345 88 256 0.0 0.0 0.00 0.00 0.00 52 1009.8
20260509222843 88 246 4.0 8.0 0.00 0.00 0.00 51 1009.9
20260509222342 90 235 2.0 4.0 0.00 0.00 0.00 50 1009.9
20260509221838 89 249 4.0 4.0 0.00 0.00 0.00 49 1009.8
20260509221337 88 250 0.0 4.0 0.00 0.00 0.00 52 1010.0
20260509220836 90 208 2.0 4.0 0.00 0.00 0.00 52 1010.0
20260509220333 90 253 0.0 2.0 0.00 0.00 0.00 52 1010.0
20260509215828 90 235 0.0 2.0 0.00 0.00 0.00 53 1010.0
20260509215325 89 255 2.0 6.0 0.00 0.00 0.00 53 1010.1
20260509214822 91 253 3.0 4.0 0.00 0.00 0.00 49 1010.1
20260509214319 91 249 0.0 2.0 0.00 0.00 0.00 48 1010.2
20260509213817 90 257 2.0 6.0 0.00 0.00 0.00 50 1010.1
20260509213312 94 251 2.0 4.0 0.00 0.00 0.00 44 1010.2
20260509212810 92 257 0.0 4.0 0.00 0.00 0.00 47 1010.2
20260509212307 91 273 0.0 2.0 0.00 0.00 0.00 50 1010.2
20260509211802 89 261 0.0 6.0 0.00 0.00 0.00 51 1010.3
20260509211259 91 227 2.0 2.0 0.00 0.00 0.00 51 1010.1
20260509210755 91 250 2.0 4.0 0.00 0.00 0.00 51 1010.3
20260509210253 89 259 0.0 0.0 0.00 0.00 0.00 52 1010.4
20260509205753 90 262 2.0 4.0 0.00 0.00 0.00 51 1010.6
20260509205247 89 253 0.0 6.0 0.00 0.00 0.00 53 1010.7
20260509204743 90 243 3.0 10.0 0.00 0.00 0.00 51 1010.7
20260509204240 90 272 2.0 4.0 0.00 0.00 0.00 50 1010.6
20260509203736 90 244 5.0 8.0 0.00 0.00 0.00 49 1010.8
20260509203234 89 251 1.0 8.0 0.00 0.00 0.00 54 1010.8
20260509202730 87 252 0.0 2.0 0.00 0.00 0.00 56 1011.0
20260509202226 89 259 4.0 6.0 0.00 0.00 0.00 55 1011.1
20260509201721 89 260 2.0 2.0 0.00 0.00 0.00 53 1011.2
20260509201218 89 252 2.0 8.0 0.00 0.00 0.00 53 1011.2
20260509200714 89 229 4.0 6.0 0.00 0.00 0.00 54 1011.3
20260509200209 88 229 3.0 4.0 0.00 0.00 0.00 57 1011.5
20260509195705 88 261 0.0 2.0 0.00 0.00 0.00 59 1011.6
20260509195201 89 266 0.0 4.0 0.00 0.00 0.00 57 1011.7
20260509194700 87 253 2.0 2.0 0.00 0.00 0.00 59 1011.7
20260509194158 88 244 0.0 2.0 0.00 0.00 0.00 57 1011.9
20260509193654 88 243 3.0 6.0 0.00 0.00 0.00 57 1012.0
20260509193149 88 255 1.0 2.0 0.00 0.00 0.00 56 1011.9
20260509192646 86 218 2.0 2.0 0.00 0.00 0.00 64 1012.0
20260509192141 87 250 2.0 4.0 0.00 0.00 0.00 63 1012.1
20260509191641 87 244 0.0 4.0 0.00 0.00 0.00 60 1012.1
20260509191138 87 257 2.0 8.0 0.00 0.00 0.00 60 1012.1
20260509190634 86 253 0.0 4.0 0.00 0.00 0.00 63 1012.1
20260509190132 87 255 2.0 4.0 0.00 0.00 0.00 60 1012.2
20260509185629 86 264 2.0 6.0 0.00 0.00 0.00 62 1012.3
20260509185125 87 245 2.0 6.0 0.00 0.00 0.00 60 1012.3
20260509184623 87 253 3.0 4.0 0.00 0.00 0.00 62 1012.4
20260509184120 87 235 2.0 6.0 0.00 0.00 0.00 59 1012.3
20260509183616 87 251 2.0 4.0 0.00 0.00 0.00 63 1012.7
20260509183111 87 261 1.0 2.0 0.00 0.00 0.00 62 1012.6
20260509182608 85 250 0.0 8.0 0.00 0.00 0.00 66 1012.6
20260509182105 85 260 6.0 10.0 0.00 0.00 0.00 66 1012.6
20260509181603 85 258 0.0 6.0 0.00 0.00 0.00 66 1012.9
20260509181100 84 248 0.0 6.0 0.00 0.00 0.00 65 1012.8
20260509180555 84 279 4.0 4.0 0.00 0.00 0.00 66 1012.9
20260509180053 84 258 0.0 6.0 0.00 0.00 0.00 67 1013.0
20260509175548 86 254 5.0 10.0 0.00 0.00 0.00 62 1012.8
20260509175046 86 253 1.0 4.0 0.00 0.00 0.00 66 1012.9
20260509174542 85 258 0.0 2.0 0.00 0.00 0.00 66 1013.1
20260509174037 84 244 2.0 8.0 0.00 0.00 0.00 68 1013.0
20260509173532 83 254 0.0 4.0 0.00 0.00 0.00 71 1013.1
20260509173028 83 257 3.0 8.0 0.00 0.00 0.00 71 1013.1
20260509172526 83 241 7.0 8.0 0.00 0.00 0.00 70 1013.3
20260509172021 83 212 3.0 6.0 0.00 0.00 0.00 72 1013.2
20260509171517 82 261 0.0 0.0 0.00 0.00 0.00 72 1013.3
20260509171014 82 254 1.0 4.0 0.00 0.00 0.00 73 1013.1
20260509170510 81 259 0.0 2.0 0.00 0.00 0.00 75 1013.3
20260509170006 80 240 2.0 10.0 0.00 0.00 0.00 77 1013.1
20260509165504 80 248 4.0 4.0 0.00 0.00 0.00 80 1013.2
20260509165000 81 239 0.0 0.0 0.00 0.00 0.00 79 1013.3
20260509164456 79 258 1.0 4.0 0.00 0.00 0.00 80 1013.4
20260509163952 80 251 2.0 4.0 0.00 0.00 0.00 80 1013.3
20260509163450 80 244 3.0 6.0 0.00 0.00 0.00 80 1013.4
20260509162949 80 264 0.0 0.0 0.00 0.00 0.00 80 1013.6
20260509162448 80 252 0.0 0.0 0.00 0.00 0.00 81 1013.7
20260509161944 80 246 0.0 6.0 0.00 0.00 0.00 81 1013.6
20260509161440 80 257 0.0 2.0 0.00 0.00 0.00 80 1013.5
20260509160935 80 179 2.0 4.0 0.00 0.00 0.00 81 1013.5
20260509160432 79 241 2.0 6.0 0.00 0.00 0.00 85 1013.3
20260509155927 78 205 4.0 6.0 0.00 0.00 0.00 85 1013.4
20260509155424 78 233 2.0 6.0 0.00 0.00 0.00 86 1013.3
20260509154920 77 239 1.0 2.0 0.00 0.00 0.00 88 1013.3
20260509154417 77 235 1.0 6.0 0.00 0.00 0.00 88 1013.5
20260509153914 76 229 2.0 6.0 0.00 0.00 0.00 88 1013.5
20260509153411 76 252 5.0 6.0 0.00 0.00 0.00 89 1013.4
20260509152908 76 154 4.0 10.0 0.00 0.00 0.00 90 1013.3
20260509152403 75 254 3.0 6.0 0.00 0.00 0.00 91 1013.7
20260509151901 74 245 0.0 2.0 0.00 0.00 0.00 93 1013.8
20260509151356 73 235 1.0 2.0 0.00 0.00 0.00 95 1013.4
20260509150855 73 253 0.0 0.0 0.00 0.00 0.00 96 1014.0
20260509150353 73 254 1.0 2.0 0.00 0.00 0.00 96 1013.8
20260509145850 72 254 0.0 0.0 0.00 0.00 0.00 98 1014.0
20260509145350 72 254 0.0 0.0 0.00 0.00 0.00 99 1013.9
20260509144846 72 254 0.0 0.0 0.00 0.00 0.00 99 1013.8
20260509144343 72 254 0.0 0.0 0.00 0.00 0.00 99 1013.8
20260509143840 71 254 0.0 0.0 0.00 0.00 0.00 99 1013.9
20260509143338 71 254 0.0 0.0 0.00 0.00 0.00 99 1014.0
20260509142834 71 254 0.0 0.0 0.00 0.00 0.00 99 1013.7
20260509142330 71 254 0.0 0.0 0.00 0.00 0.00 99 1013.5
20260509141826 71 254 0.0 0.0 0.00 0.00 0.00 99 1013.3
20260509141327 71 254 0.0 0.0 0.00 0.00 0.00 99 1013.2
20260509140819 71 254 0.0 0.0 0.00 0.00 0.00 99 1013.2
20260509140317 71 254 0.0 0.0 0.00 0.00 0.00 99 1013.1
20260509135815 71 254 0.0 0.0 0.00 0.00 0.00 99 1013.1
20260509135312 71 253 0.0 0.0 0.00 0.00 0.00 99 1013.3
20260509134809 71 253 0.0 0.0 0.00 0.00 0.00 99 1013.2
20260509134306 71 253 0.0 0.0 0.00 0.00 0.00 99 1013.2
20260509133803 71 253 0.0 0.0 0.00 0.00 0.00 99 1013.2
20260509133259 71 253 0.0 0.0 0.00 0.00 0.00 99 1013.3
20260509132758 70 253 0.0 0.0 0.00 0.00 0.00 99 1013.2
20260509132257 70 253 0.0 0.0 0.00 0.00 0.00 99 1013.3
20260509131753 70 254 0.0 0.0 0.00 0.00 0.00 99 1013.4
20260509131250 70 254 0.0 0.0 0.00 0.00 0.00 99 1013.3
20260509130746 71 254 0.0 0.0 0.00 0.00 0.00 99 1013.3
20260509130242 71 254 0.0 0.0 0.00 0.00 0.00 99 1013.2
20260509125738 71 254 0.0 0.0 0.00 0.00 0.00 99 1013.0
20260509125236 71 254 0.0 0.0 0.00 0.00 0.00 99 1013.0
20260509124732 71 254 0.0 0.0 0.00 0.00 0.00 99 1013.2
20260509124228 71 254 0.0 0.0 0.00 0.00 0.00 99 1013.0
20260509123727 71 254 0.0 0.0 0.00 0.00 0.00 99 1013.3
20260509123224 71 249 0.0 0.0 0.00 0.00 0.00 99 1013.3
20260509122719 71 249 0.0 0.0 0.00 0.00 0.00 99 1013.2
20260509122216 71 250 0.0 0.0 0.00 0.00 0.00 99 1013.3
20260509121713 71 249 0.0 0.0 0.00 0.00 0.00 99 1013.4
20260509121211 71 249 0.0 0.0 0.00 0.00 0.00 99 1013.5
20260509120709 70 249 0.0 0.0 0.00 0.00 0.00 99 1013.1
20260509120206 70 249 0.0 0.0 0.00 0.00 0.00 99 1013.0
20260509115704 71 251 0.0 0.0 0.00 0.00 0.00 99 1012.9
20260509115201 71 252 0.0 0.0 0.00 0.00 0.00 99 1013.2
20260509114659 71 236 0.0 0.0 0.00 0.00 0.00 99 1013.4
20260509114158 71 235 0.0 0.0 0.00 0.00 0.00 99 1013.1
20260509113656 71 235 0.0 0.0 0.00 0.00 0.00 99 1013.1
20260509113152 71 235 0.0 0.0 0.00 0.00 0.00 99 1013.2
20260509112649 71 235 0.0 0.0 0.00 0.00 0.00 99 1013.0
20260509112146 71 235 0.0 0.0 0.00 0.00 0.00 99 1013.0
20260509111643 71 235 0.0 0.0 0.00 0.00 0.00 99 1012.9
20260509111140 71 235 0.0 0.0 0.00 0.00 0.00 99 1012.7
20260509110637 71 235 0.0 0.0 0.00 0.00 0.00 99 1012.8
20260509110134 70 235 0.0 0.0 0.00 0.00 0.00 99 1012.4
20260509105633 70 235 0.0 0.0 0.00 0.00 0.00 99 1012.5
20260509105130 70 235 0.0 0.0 0.00 0.00 0.00 99 1012.9
20260509104627 71 235 0.0 0.0 0.00 0.00 0.00 99 1012.6
20260509104123 70 235 0.0 0.0 0.00 0.00 0.00 99 1012.9
20260509103621 70 236 0.0 0.0 0.00 0.00 0.00 99 1012.7
20260509103119 70 236 0.0 0.0 0.00 0.00 0.00 99 1012.7
20260509102616 70 236 0.0 0.0 0.00 0.00 0.00 99 1012.7
20260509102113 70 236 0.0 0.0 0.00 0.00 0.00 99 1012.6
20260509101609 71 236 0.0 0.0 0.00 0.00 0.00 99 1012.6
20260509101106 71 236 0.0 0.0 0.00 0.00 0.00 99 1012.6
20260509100603 71 236 0.0 0.0 0.00 0.00 0.00 99 1012.4
20260509100101 71 236 0.0 0.0 0.00 0.00 0.00 99 1012.5
20260509095557 71 236 0.0 0.0 0.00 0.00 0.00 99 1012.4
20260509095055 71 236 0.0 0.0 0.00 0.00 0.00 99 1012.3
20260509094550 71 236 0.0 0.0 0.00 0.00 0.00 99 1012.1
20260509094048 71 236 0.0 0.0 0.00 0.00 0.00 99 1011.6
20260509093546 71 237 0.0 0.0 0.00 0.00 0.00 99 1011.5
20260509093043 71 237 0.0 0.0 0.00 0.00 0.00 99 1011.5
20260509092541 71 237 0.0 0.0 0.00 0.00 0.00 99 1011.4
20260509092040 71 237 0.0 0.0 0.00 0.00 0.00 99 1011.7
20260509091537 71 237 0.0 0.0 0.00 0.00 0.00 99 1011.7
20260509091033 71 237 0.0 0.0 0.00 0.00 0.00 99 1011.6
20260509090531 71 237 0.0 0.0 0.00 0.00 0.00 99 1011.6
20260509090028 71 237 0.0 0.0 0.00 0.00 0.00 99 1011.5
20260509085525 71 237 0.0 0.0 0.00 0.00 0.00 99 1011.7
20260509085021 71 237 0.0 0.0 0.00 0.00 0.00 99 1011.7
20260509084518 71 237 0.0 0.0 0.00 0.00 0.00 99 1011.7
20260509084015 71 237 0.0 0.0 0.00 0.00 0.00 99 1011.6
20260509083513 71 237 0.0 0.0 0.00 0.00 0.00 99 1011.7